This is the latest recevied weather packets stored in our database for station/object KO6LQK. If no packets are shown the sender has not sent any weather packets the latest 10 day(s).
| Time | Temp. | Humidity | Pressure | Rain* | Wind** | Luminosity | Snow |
|---|---|---|---|---|---|---|---|
| 1788221021 | 29.44° C | 19% | 1020.1 hPa | 0 mm | - | 431 W/m² | - |
| 1788220719 | 30° C | 19% | 1019.6 hPa | 0 mm | - | 453 W/m² | - |
| 1788220416 | 30.56° C | 18% | 1019.8 hPa | 0 mm | - | 469 W/m² | - |
| 1788220110 | 30° C | 18% | 1019.8 hPa | 0 mm | - | 496 W/m² | - |
| 1788219805 | 30° C | 19% | 1019.7 hPa | 0 mm | - | 509 W/m² | - |
| 1788219500 | 30.56° C | 18% | 1019.8 hPa | 0 mm | - | 527 W/m² | - |
| 1788219196 | 30° C | 19% | 1019.9 hPa | 0 mm | - | 548 W/m² | - |
| 1788218891 | 30° C | 18% | 1019.9 hPa | 0 mm | - | 550 W/m² | - |
| 1788218587 | 30.56° C | 19% | 1019.8 hPa | 0 mm | - | 570 W/m² | - |
| 1788218283 | 30.56° C | 19% | 1019.4 hPa | 0 mm | - | 575 W/m² | - |
| 1788217979 | 31.67° C | 16% | 1019.7 hPa | 0 mm | - | 585 W/m² | - |
| 1788217674 | 31.11° C | 17% | 1019.9 hPa | 0 mm | - | 603 W/m² | - |
| 1788217369 | 31.11° C | 16% | 1019.9 hPa | 0 mm | - | 609 W/m² | - |
| 1788217068 | 30.56° C | 16% | 1019.9 hPa | 0 mm | - | 626 W/m² | - |
| 1788216764 | 31.11° C | 16% | 1019.7 hPa | 0 mm | - | 640 W/m² | - |
| 1788216458 | 31.11° C | 15% | 1019.8 hPa | 0 mm | - | 656 W/m² | - |
| 1788216154 | 31.67° C | 15% | 1019.8 hPa | 0 mm | - | 681 W/m² | - |
| 1788215849 | 31.11° C | 14% | 1020.1 hPa | 0 mm | - | 698 W/m² | - |
| 1788215545 | 30.56° C | 14% | 1020.2 hPa | 0 mm | - | 714 W/m² | - |
| 1788215241 | 31.11° C | 15% | 1019.9 hPa | 0 mm | - | 725 W/m² | - |
| 1788214937 | 31.11° C | 13% | 1020.1 hPa | 0 mm | - | 744 W/m² | - |
| 1788214632 | 31.11° C | 13% | 1020.2 hPa | 0 mm | - | 761 W/m² | - |
| 1788214327 | 31.11° C | 12% | 1020.3 hPa | 0 mm | - | 769 W/m² | - |
| 1788214022 | 31.67° C | 13% | 1020.3 hPa | 0 mm | - | 783 W/m² | - |
| 1788213717 | 31.67° C | 15% | 1020.3 hPa | 0 mm | - | 786 W/m² | - |
* Rain latest hour (hover to see other rain measurements)
** Current wind speed in m/s (hover to see current wind gust speed)